CZ-6A DEB, 54330

Orbit data source: Space-Track

CZ-6A DEB, 54330 is space debris in SSO originally from a launch on Fri, 11 Nov 2022 UTC launched from the Taiyaun Space Center, China (TSC). Debris objects in space refer to the collection of defunct objects orbiting the Earth. Examples of debris include non-operational satellites, rocket bodies, and fragments generated from explosions, collisions, or faulty payload assembly.

Loading next visibility...
Identifier
54330, 2022-151BZ
Orbit
SSO
Country
Flag of CNCN / PRC
Related business
Manufacturer
SAST
Mission
Spacecraft
Bus & Motor
Unknown
Mass
Unknown
Launch date (UTC)
2022-11-11 (3 years ago)
Launch vehicle
Unknown
Launch site
Taiyaun Space Center, China (TSC)
Object type
Payload
Rocket body
Debris
Shape & HBR
Unknown shape, 0.1 m
Radar Cross Section
Small (<0.1 m²)

Expand to show TLE details & history
Last TLE update: 20 hours ago

TLE from 20 hours ago
0 CZ-6A DEB
1 54330U 22151BZ  25350.03060609  .00001856  00000-0  75380-3 0  9991
2 54330  98.7705   8.2417 0053882 140.6685 219.8428 14.28016906160076
Epoch: 2025-12-16T00:44Z
TLE epoch observation values (Epoch: 2025-12-16T00:44:04.366Z)
Latitude
-0.00004°
Longitude
-87.69715°
Altitude
831.072 km
Speed
7.422 km/s
True Right ascension
00h 32m 58s
True Declination
0° 00' 00"
Sunlit
Object was in daylight at epoch
Visualization orbit readout
Latitude
Unknown
Longitude
Unknown
Altitude
Unknown
Speed
Unknown
Apparent Right ascension
Unknown
Apparent Declination
Unknown
Sunlit
N/A
Visualization observer readout
Local Sidereal Time
19:41:21
Azimuth
Unknown
Elevation
Unknown
Doppler factor
Unknown
Orbital elements
Apogee altitude
834.171 km
Perigee altitude
756.865 km
Semi-major axis
7,173.655 km
Eccentricity
0.00539
Inclination
98.7705°
RAAN
8.2417°
Arg. of periapsis
140.6685°
True anomaly
219.44925°
Mean anomaly
219.8428°
Eccentric anomaly
219.64582°
Mean motion
3.57217 °/min
Orbital period
100.78 mins
BSTAR
0.0007538
Loading maneuver chart data...
Computing Atmospheric mass density...
Loading historical data...
Loading historical data...
Loading historical data...
Loading historical data...
Loading historical data...
Loading historical data...
Loading historical data...

Documentation

Showing up to 5 results
|